Time,TemperatureF,DewpointF,PressureIn,WindDirection,WindDirectionDegrees,WindSpeedMPH,WindSpeedGustMPH,Humidity,HourlyPrecipIn,Conditions,Clouds,dailyrainin,SoftwareType,DateUTC
2013-01-08 00:05:00,36.5,25.1,30.05,SSW,202,0.4,1.1,63,0.00,,CLR,0.00,VWS V14.01,2013-01-08 06:05:00,
2013-01-08 00:10:00,36.3,24.9,30.05,SSW,202,1.8,1.8,63,0.00,,CLR,0.00,VWS V14.01,2013-01-08 06:10:00,
2013-01-08 00:15:00,36.1,24.7,30.05,SSW,202,0.4,1.8,63,0.00,,CLR,0.00,VWS V14.01,2013-01-08 06:15:00,
2013-01-08 00:20:00,36.1,24.7,30.05,SSW,202,1.1,2.0,63,0.00,,CLR,0.00,VWS V14.01,2013-01-08 06:20:00,
2013-01-08 00:26:00,35.9,24.9,30.05,NNW,338,0.9,0.9,64,0.00,,CLR,0.00,VWS V14.01,2013-01-08 06:26:00,
2013-01-08 00:35:00,35.8,24.8,30.05,SSE,158,1.1,1.6,64,0.00,,CLR,0.00,VWS V14.01,2013-01-08 06:35:00,
2013-01-08 00:40:00,35.8,24.8,30.05,WSW,248,2.0,2.5,64,0.00,,CLR,0.00,VWS V14.01,2013-01-08 06:40:00,
2013-01-08 00:45:00,35.8,25.2,30.05,SSE,158,0.9,2.5,65,0.00,,CLR,0.00,VWS V14.01,2013-01-08 06:45:00,
2013-01-08 00:50:00,35.8,25.2,30.05,SSW,202,1.8,1.8,65,0.00,,CLR,0.00,VWS V14.01,2013-01-08 06:50:00,
2013-01-08 00:55:00,35.8,25.2,30.05,SE,135,2.0,2.0,65,0.00,,CLR,0.00,VWS V14.01,2013-01-08 06:55:00,
2013-01-08 01:05:00,35.9,25.3,30.05,South,180,1.3,1.3,65,0.00,,CLR,0.00,VWS V14.01,2013-01-08 07:05:00,
2013-01-08 01:10:00,35.9,25.3,30.05,ESE,112,2.5,2.5,65,0.00,,CLR,0.00,VWS V14.01,2013-01-08 07:10:00,
2013-01-08 01:16:00,35.8,25.2,30.05,SE,135,0.2,0.2,65,0.00,,CLR,0.00,VWS V14.01,2013-01-08 07:16:00,
2013-01-08 01:25:00,35.6,25.0,30.05,SSE,158,1.1,1.1,65,0.00,,CLR,0.00,VWS V14.01,2013-01-08 07:25:00,
2013-01-08 01:30:00,35.4,24.8,30.05,SE,135,0.4,1.1,65,0.00,,CLR,0.00,VWS V14.01,2013-01-08 07:30:00,
2013-01-08 01:35:00,35.2,24.6,30.05,SE,135,1.6,1.6,65,0.00,,CLR,0.00,VWS V14.01,2013-01-08 07:35:00,
2013-01-08 01:40:00,35.0,24.8,30.05,SSE,158,1.8,1.8,66,0.00,,CLR,0.00,VWS V14.01,2013-01-08 07:40:00,
2013-01-08 01:45:00,34.9,24.7,30.05,SSE,158,0.7,1.8,66,0.00,,CLR,0.00,VWS V14.01,2013-01-08 07:45:00,
2013-01-08 01:50:00,34.7,24.5,30.05,SSE,158,1.1,1.1,66,0.00,,CLR,0.00,VWS V14.01,2013-01-08 07:50:00,
2013-01-08 01:55:00,34.7,24.5,30.05,SE,135,0.7,1.1,66,0.00,,CLR,0.00,VWS V14.01,2013-01-08 07:55:00,
2013-01-08 02:05:00,34.3,24.5,30.05,SW,225,0.7,1.8,67,0.00,,CLR,0.00,VWS V14.01,2013-01-08 08:05:00,
2013-01-08 02:10:00,34.3,24.5,30.06,South,180,0.7,2.2,67,0.00,,CLR,0.00,VWS V14.01,2013-01-08 08:10:00,
2013-01-08 02:15:00,34.3,24.5,30.06,SE,135,0.4,1.8,67,0.00,,CLR,0.00,VWS V14.01,2013-01-08 08:15:00,
2013-01-08 02:20:00,34.3,24.5,30.05,South,180,1.1,1.3,67,0.00,,CLR,0.00,VWS V14.01,2013-01-08 08:20:00,
2013-01-08 02:26:00,34.1,24.3,30.06,SE,135,2.2,2.2,67,0.00,,CLR,0.00,VWS V14.01,2013-01-08 08:26:00,
2013-01-08 02:35:00,34.0,24.2,30.06,SE,135,0.4,1.3,67,0.00,,CLR,0.00,VWS V14.01,2013-01-08 08:35:00,
2013-01-08 02:40:00,33.8,24.4,30.06,SE,135,0.4,1.8,68,0.00,,CLR,0.00,VWS V14.01,2013-01-08 08:40:00,
2013-01-08 02:45:00,33.8,24.4,30.06,South,180,0.2,1.3,68,0.00,,CLR,0.00,VWS V14.01,2013-01-08 08:45:00,
2013-01-08 02:55:00,33.6,24.2,30.06,SSE,158,0.7,1.8,68,0.00,,CLR,0.00,VWS V14.01,2013-01-08 08:55:00,
2013-01-08 03:05:00,33.6,24.5,30.05,SW,225,0.4,2.0,69,0.00,,CLR,0.00,VWS V14.01,2013-01-08 09:05:00,
2013-01-08 03:10:00,33.4,24.3,30.06,SW,225,0.2,1.8,69,0.00,,CLR,0.00,VWS V14.01,2013-01-08 09:10:00,
2013-01-08 03:15:00,33.4,24.3,30.06,SSW,202,1.8,3.4,69,0.00,,CLR,0.00,VWS V14.01,2013-01-08 09:15:00,
2013-01-08 03:25:00,33.4,24.3,30.06,SE,135,0.4,0.4,69,0.00,,CLR,0.00,VWS V14.01,2013-01-08 09:25:00,
2013-01-08 03:30:00,33.2,24.1,30.06,SSW,202,0.4,0.9,69,0.00,,CLR,0.00,VWS V14.01,2013-01-08 09:30:00,
2013-01-08 03:35:00,33.1,24.0,30.06,SE,135,0.7,1.1,69,0.00,,CLR,0.00,VWS V14.01,2013-01-08 09:35:00,
2013-01-08 03:40:00,32.9,24.2,30.07,SSE,158,1.1,1.1,70,0.00,,CLR,0.00,VWS V14.01,2013-01-08 09:40:00,
2013-01-08 03:45:00,32.9,24.2,30.06,SSE,158,0.2,1.1,70,0.00,,CLR,0.00,VWS V14.01,2013-01-08 09:45:00,
2013-01-08 03:50:00,32.7,24.0,30.06,SSW,202,1.1,1.1,70,0.00,,CLR,0.00,VWS V14.01,2013-01-08 09:50:00,
2013-01-08 03:55:00,32.7,24.0,30.06,SW,225,0.0,1.8,70,0.00,,CLR,0.00,VWS V14.01,2013-01-08 09:55:00,
2013-01-08 04:05:00,32.5,24.2,30.05,SE,135,1.1,1.1,71,0.00,,CLR,0.00,VWS V14.01,2013-01-08 10:05:00,
2013-01-08 04:10:00,32.3,24.0,30.05,SW,225,0.4,1.1,71,0.00,,CLR,0.00,VWS V14.01,2013-01-08 10:10:00,
2013-01-08 04:15:00,32.3,24.0,30.05,South,180,1.1,1.1,71,0.00,,CLR,0.00,VWS V14.01,2013-01-08 10:15:00,
2013-01-08 04:20:00,32.5,24.2,30.05,SSE,158,0.4,1.8,71,0.00,,CLR,0.00,VWS V14.01,2013-01-08 10:20:00,
2013-01-08 04:26:00,32.5,24.2,30.04,SE,135,1.1,1.1,71,0.00,,CLR,0.00,VWS V14.01,2013-01-08 10:26:00,
2013-01-08 04:35:00,32.7,24.4,30.04,NNE,22,0.4,0.9,71,0.00,,CLR,0.00,VWS V14.01,2013-01-08 10:35:00,
2013-01-08 04:40:00,32.7,24.4,30.04,WSW,248,0.0,1.1,71,0.00,,CLR,0.00,VWS V14.01,2013-01-08 10:40:00,
2013-01-08 04:46:00,32.7,24.4,30.04,SW,225,1.1,2.0,71,0.00,,CLR,0.00,VWS V14.01,2013-01-08 10:46:00,
2013-01-08 04:55:00,32.7,24.7,30.04,SE,135,0.7,0.9,72,0.00,,CLR,0.00,VWS V14.01,2013-01-08 10:55:00,
2013-01-08 05:05:00,32.7,24.7,30.04,SE,135,0.9,2.2,72,0.00,,CLR,0.00,VWS V14.01,2013-01-08 11:05:00,
2013-01-08 05:10:00,32.7,24.7,30.04,SSW,202,1.6,1.6,72,0.00,,CLR,0.00,VWS V14.01,2013-01-08 11:10:00,
2013-01-08 05:15:00,32.9,24.9,30.04,SSE,158,0.4,1.6,72,0.00,,CLR,0.00,VWS V14.01,2013-01-08 11:15:00,
2013-01-08 05:25:00,32.9,24.9,30.04,SW,225,1.1,1.1,72,0.00,,CLR,0.00,VWS V14.01,2013-01-08 11:25:00,
2013-01-08 05:30:00,32.9,24.9,30.04,SSE,158,0.4,1.1,72,0.00,,CLR,0.00,VWS V14.01,2013-01-08 11:30:00,
2013-01-08 05:35:00,32.9,24.9,30.04,SSW,202,0.0,1.1,72,0.00,,CLR,0.00,VWS V14.01,2013-01-08 11:35:00,
2013-01-08 05:40:00,32.9,24.9,30.04,SSW,202,0.9,1.1,72,0.00,,CLR,0.00,VWS V14.01,2013-01-08 11:40:00,
2013-01-08 05:45:00,32.9,24.9,30.04,SW,225,0.4,1.1,72,0.00,,CLR,0.00,VWS V14.01,2013-01-08 11:45:00,
2013-01-08 05:50:00,32.9,24.9,30.04,South,180,1.1,1.1,72,0.00,,CLR,0.00,VWS V14.01,2013-01-08 11:50:00,
2013-01-08 05:55:00,32.9,25.2,30.04,SE,135,0.4,1.8,73,0.00,,CLR,0.00,VWS V14.01,2013-01-08 11:55:00,
2013-01-08 06:05:00,33.1,25.4,30.04,South,180,0.0,1.6,73,0.00,,CLR,0.00,VWS V14.01,2013-01-08 12:05:00,
2013-01-08 06:10:00,33.2,25.5,30.04,WSW,248,1.3,2.5,73,0.00,,CLR,0.00,VWS V14.01,2013-01-08 12:10:00,
2013-01-08 06:15:00,33.4,25.7,30.04,SW,225,0.9,1.8,73,0.00,,CLR,0.00,VWS V14.01,2013-01-08 12:15:00,
2013-01-08 06:20:00,33.4,25.4,30.04,South,180,0.0,2.2,72,0.00,,CLR,0.00,VWS V14.01,2013-01-08 12:20:00,
2013-01-08 06:25:00,33.4,25.4,30.03,SE,135,0.4,1.6,72,0.00,,CLR,0.00,VWS V14.01,2013-01-08 12:25:00,
2013-01-08 06:30:00,33.4,25.4,30.04,SW,225,1.1,1.1,72,0.00,,CLR,0.00,VWS V14.01,2013-01-08 12:30:00,
2013-01-08 06:35:00,33.2,25.2,30.03,SE,135,2.5,2.5,72,0.00,,CLR,0.00,VWS V14.01,2013-01-08 12:35:00,
2013-01-08 06:40:00,33.2,25.2,30.03,SSE,158,0.9,2.5,72,0.00,,CLR,0.00,VWS V14.01,2013-01-08 12:40:00,
2013-01-08 06:45:00,33.2,25.2,30.03,East,90,2.5,2.5,72,0.00,,CLR,0.00,VWS V14.01,2013-01-08 12:45:00,
2013-01-08 06:50:00,33.2,25.2,30.03,SW,225,1.1,2.5,72,0.00,,CLR,0.00,VWS V14.01,2013-01-08 12:50:00,
2013-01-08 06:55:00,33.2,25.2,30.03,WSW,248,1.8,3.1,72,0.00,,CLR,0.00,VWS V14.01,2013-01-08 12:55:00,
2013-01-08 07:05:00,33.2,25.2,30.03,SSW,202,3.4,4.0,72,0.00,,CLR,0.00,VWS V14.01,2013-01-08 13:05:00,
2013-01-08 07:10:00,33.2,25.2,30.03,ESE,112,1.6,3.4,72,0.00,,CLR,0.00,VWS V14.01,2013-01-08 13:10:00,
2013-01-08 07:15:00,33.2,25.2,30.03,SSE,158,0.4,3.4,72,0.00,,CLR,0.00,VWS V14.01,2013-01-08 13:15:00,
2013-01-08 07:20:00,33.1,25.1,30.03,SE,135,1.1,1.6,72,0.00,,CLR,0.00,VWS V14.01,2013-01-08 13:20:00,
2013-01-08 07:25:00,33.1,25.1,30.03,SSE,158,1.6,4.7,72,0.00,,CLR,0.00,VWS V14.01,2013-01-08 13:25:00,
2013-01-08 07:30:00,33.1,25.1,30.04,SSW,202,0.4,4.5,72,0.00,,CLR,0.00,VWS V14.01,2013-01-08 13:30:00,
2013-01-08 07:35:00,33.1,25.1,30.04,South,180,0.7,1.6,72,0.00,,CLR,0.00,VWS V14.01,2013-01-08 13:35:00,
2013-01-08 07:40:00,32.9,24.9,30.03,NE,45,2.2,4.7,72,0.00,,CLR,0.00,VWS V14.01,2013-01-08 13:40:00,
2013-01-08 07:45:00,32.9,24.9,30.04,ESE,112,0.7,4.0,72,0.00,,CLR,0.00,VWS V14.01,2013-01-08 13:45:00,
2013-01-08 07:50:00,33.1,25.1,30.04,ESE,112,0.0,1.3,72,0.00,,CLR,0.00,VWS V14.01,2013-01-08 13:50:00,
2013-01-08 07:55:00,32.9,24.9,30.04,WSW,248,0.4,1.3,72,0.00,,CLR,0.00,VWS V14.01,2013-01-08 13:55:00,
2013-01-08 08:05:00,33.1,25.1,30.04,SSW,202,1.8,2.7,72,0.00,,CLR,0.00,VWS V14.01,2013-01-08 14:05:00,
2013-01-08 08:10:00,33.1,25.1,30.04,SSE,158,3.1,3.1,72,0.00,,CLR,0.00,VWS V14.01,2013-01-08 14:10:00,
2013-01-08 08:15:00,33.1,24.7,30.04,West,270,3.8,6.9,71,0.00,,CLR,0.00,VWS V14.01,2013-01-08 14:15:00,
2013-01-08 08:20:00,33.2,24.8,30.04,ESE,112,1.1,3.8,71,0.00,,CLR,0.00,VWS V14.01,2013-01-08 14:20:00,
2013-01-08 08:26:00,33.2,24.8,30.04,SW,225,1.1,2.2,71,0.00,,CLR,0.00,VWS V14.01,2013-01-08 14:26:00,
2013-01-08 08:35:00,33.6,25.2,30.04,SSW,202,1.8,1.8,71,0.00,,CLR,0.00,VWS V14.01,2013-01-08 14:35:00,
2013-01-08 08:40:00,33.6,25.2,30.04,WSW,248,2.5,2.5,71,0.00,,CLR,0.00,VWS V14.01,2013-01-08 14:40:00,
2013-01-08 08:45:00,33.8,25.4,30.04,SE,135,1.3,2.9,71,0.00,,CLR,0.00,VWS V14.01,2013-01-08 14:45:00,
2013-01-08 08:50:00,34.0,25.6,30.03,South,180,1.8,3.4,71,0.00,,CLR,0.00,VWS V14.01,2013-01-08 14:50:00,
2013-01-08 08:55:00,34.1,25.7,30.03,ESE,112,2.5,4.0,71,0.00,,CLR,0.00,VWS V14.01,2013-01-08 14:55:00,
2013-01-08 09:05:00,35.4,26.6,30.03,SSW,202,1.8,4.5,70,0.00,,CLR,0.00,VWS V14.01,2013-01-08 15:05:00,
2013-01-08 09:10:00,36.1,27.3,30.03,SSW,202,4.0,4.0,70,0.00,,CLR,0.00,VWS V14.01,2013-01-08 15:10:00,
2013-01-08 09:15:00,36.8,27.6,30.04,ESE,112,4.7,4.7,69,0.00,,CLR,0.00,VWS V14.01,2013-01-08 15:15:00,
2013-01-08 09:20:00,37.6,28.0,30.04,South,180,0.0,4.7,68,0.00,,CLR,0.00,VWS V14.01,2013-01-08 15:20:00,
2013-01-08 09:25:00,38.3,28.7,30.03,South,180,4.0,4.9,68,0.00,,CLR,0.00,VWS V14.01,2013-01-08 15:25:00,
2013-01-08 09:30:00,38.8,28.8,30.04,South,180,2.5,4.3,67,0.00,,CLR,0.00,VWS V14.01,2013-01-08 15:30:00,
2013-01-08 09:35:00,39.4,29.4,30.04,SSW,202,5.1,6.0,67,0.00,,CLR,0.00,VWS V14.01,2013-01-08 15:35:00,
2013-01-08 09:40:00,39.5,29.1,30.04,WSW,248,4.0,5.1,66,0.00,,CLR,0.00,VWS V14.01,2013-01-08 15:40:00,
2013-01-08 09:45:00,39.7,29.3,30.04,SSW,202,2.2,4.0,66,0.00,,CLR,0.00,VWS V14.01,2013-01-08 15:45:00,
2013-01-08 09:50:00,40.1,29.7,30.04,SSW,202,5.4,5.4,66,0.00,,CLR,0.00,VWS V14.01,2013-01-08 15:50:00,
2013-01-08 09:55:00,40.4,29.6,30.04,SW,225,5.6,5.6,65,0.00,,CLR,0.00,VWS V14.01,2013-01-08 15:55:00,
2013-01-08 10:05:00,40.8,29.6,30.04,South,180,6.5,6.5,64,0.00,,CLR,0.00,VWS V14.01,2013-01-08 16:05:00,
2013-01-08 10:10:00,41.3,30.1,30.05,SE,135,3.1,6.5,64,0.00,,CLR,0.00,VWS V14.01,2013-01-08 16:10:00,
2013-01-08 10:15:00,41.7,30.0,30.04,SE,135,5.6,5.6,63,0.00,,CLR,0.00,VWS V14.01,2013-01-08 16:15:00,
2013-01-08 10:20:00,42.2,30.5,30.04,SSW,202,1.8,5.6,63,0.00,,CLR,0.00,VWS V14.01,2013-01-08 16:20:00,
2013-01-08 10:25:00,42.6,30.9,30.04,South,180,2.2,6.9,63,0.00,,CLR,0.00,VWS V14.01,2013-01-08 16:25:00,
2013-01-08 10:30:00,43.0,30.9,30.04,SE,135,2.5,4.5,62,0.00,,CLR,0.00,VWS V14.01,2013-01-08 16:30:00,
2013-01-08 10:35:00,43.3,31.2,30.04,SSE,158,6.0,6.0,62,0.00,,CLR,0.00,VWS V14.01,2013-01-08 16:35:00,
2013-01-08 10:40:00,43.5,31.0,30.04,SSE,158,5.6,6.0,61,0.00,,CLR,0.00,VWS V14.01,2013-01-08 16:40:00,
2013-01-08 10:45:00,43.7,31.1,30.04,ESE,112,2.0,6.0,61,0.00,,CLR,0.00,VWS V14.01,2013-01-08 16:45:00,
2013-01-08 10:50:00,44.0,31.4,30.04,SW,225,5.8,5.8,61,0.00,,CLR,0.00,VWS V14.01,2013-01-08 16:50:00,
2013-01-08 10:55:00,44.2,31.2,30.04,WSW,248,2.2,5.8,60,0.00,,CLR,0.00,VWS V14.01,2013-01-08 16:55:00,
2013-01-08 11:05:00,44.8,31.8,30.03,WSW,248,4.7,5.4,60,0.00,,CLR,0.00,VWS V14.01,2013-01-08 17:05:00,
2013-01-08 11:10:00,44.9,31.9,30.03,SSW,202,4.9,8.5,60,0.00,,CLR,0.00,VWS V14.01,2013-01-08 17:10:00,
2013-01-08 11:15:00,45.1,32.1,30.03,SW,225,4.7,7.8,60,0.00,,CLR,0.00,VWS V14.01,2013-01-08 17:15:00,
2013-01-08 11:20:00,45.5,32.4,30.03,SE,135,3.1,4.7,60,0.00,,CLR,0.00,VWS V14.01,2013-01-08 17:20:00,
2013-01-08 11:27:00,45.8,32.3,30.03,SSW,202,5.8,5.8,59,0.00,,CLR,0.00,VWS V14.01,2013-01-08 17:27:00,
2013-01-08 11:35:00,46.9,33.3,30.02,SSW,202,3.4,5.6,59,0.00,,CLR,0.00,VWS V14.01,2013-01-08 17:35:00,
2013-01-08 11:40:00,47.1,33.1,30.02,WSW,248,3.6,5.8,58,0.00,,CLR,0.00,VWS V14.01,2013-01-08 17:40:00,
2013-01-08 11:45:00,47.1,32.7,30.02,WSW,248,4.7,5.4,57,0.00,,CLR,0.00,VWS V14.01,2013-01-08 17:45:00,
2013-01-08 11:50:00,47.5,33.0,30.02,South,180,6.3,6.3,57,0.00,,CLR,0.00,VWS V14.01,2013-01-08 17:50:00,
2013-01-08 11:55:00,47.8,33.3,30.02,SW,225,5.1,6.9,57,0.00,,CLR,0.00,VWS V14.01,2013-01-08 17:55:00,
2013-01-08 12:05:00,48.4,33.4,30.01,SW,225,11.2,11.2,56,0.00,,CLR,0.00,VWS V14.01,2013-01-08 18:05:00,
2013-01-08 12:10:00,48.4,32.5,30.00,SW,225,4.5,11.2,54,0.00,,CLR,0.00,VWS V14.01,2013-01-08 18:10:00,
2013-01-08 12:15:00,48.7,33.3,30.00,South,180,1.8,5.6,55,0.00,,CLR,0.00,VWS V14.01,2013-01-08 18:15:00,
2013-01-08 12:20:00,49.1,33.7,30.00,SW,225,3.4,6.9,55,0.00,,CLR,0.00,VWS V14.01,2013-01-08 18:20:00,
2013-01-08 12:25:00,49.3,33.4,29.99,SW,225,2.5,5.6,54,0.00,,CLR,0.00,VWS V14.01,2013-01-08 18:25:00,
2013-01-08 12:30:00,49.4,33.5,29.99,South,180,4.9,5.8,54,0.00,,CLR,0.00,VWS V14.01,2013-01-08 18:30:00,
2013-01-08 12:35:00,49.6,33.2,29.98,South,180,5.8,5.8,53,0.00,,CLR,0.00,VWS V14.01,2013-01-08 18:35:00,
2013-01-08 12:40:00,49.8,33.4,29.98,SSW,202,5.4,7.8,53,0.00,,CLR,0.00,VWS V14.01,2013-01-08 18:40:00,
2013-01-08 12:45:00,49.6,33.2,29.98,WSW,248,1.3,8.9,53,0.00,,CLR,0.00,VWS V14.01,2013-01-08 18:45:00,
2013-01-08 12:50:00,50.0,33.1,29.98,SSW,202,4.7,4.7,52,0.00,,CLR,0.00,VWS V14.01,2013-01-08 18:50:00,
2013-01-08 12:55:00,50.2,33.3,29.98,South,180,4.5,5.4,52,0.00,,CLR,0.00,VWS V14.01,2013-01-08 18:55:00,
2013-01-08 13:05:00,50.5,33.1,29.98,SW,225,3.6,6.9,51,0.00,,CLR,0.00,VWS V14.01,2013-01-08 19:05:00,
2013-01-08 13:10:00,50.5,33.1,29.97,SW,225,2.9,3.6,51,0.00,,CLR,0.00,VWS V14.01,2013-01-08 19:10:00,
2013-01-08 13:15:00,50.9,33.4,29.98,South,180,3.6,4.3,51,0.00,,CLR,0.00,VWS V14.01,2013-01-08 19:15:00,
2013-01-08 13:20:00,51.2,33.7,29.98,South,180,4.9,5.4,51,0.00,,CLR,0.00,VWS V14.01,2013-01-08 19:20:00,
2013-01-08 13:25:00,51.4,33.4,29.98,North,0,2.0,6.3,50,0.00,,CLR,0.00,VWS V14.01,2013-01-08 19:25:00,
2013-01-08 13:30:00,51.6,33.6,29.98,SW,225,2.5,6.0,50,0.00,,CLR,0.00,VWS V14.01,2013-01-08 19:30:00,
2013-01-08 13:35:00,52.0,34.0,29.98,SE,135,2.2,4.5,50,0.00,,CLR,0.00,VWS V14.01,2013-01-08 19:35:00,
2013-01-08 13:40:00,52.1,34.0,29.98,WNW,292,3.1,4.7,50,0.00,,CLR,0.00,VWS V14.01,2013-01-08 19:40:00,
2013-01-08 13:45:00,52.3,34.2,29.98,SW,225,1.3,3.1,50,0.00,,CLR,0.00,VWS V14.01,2013-01-08 19:45:00,
2013-01-08 13:50:00,52.7,34.6,29.98,WSW,248,3.8,5.1,50,0.00,,CLR,0.00,VWS V14.01,2013-01-08 19:50:00,
2013-01-08 13:55:00,52.7,34.6,29.98,SSE,158,1.6,8.5,50,0.00,,CLR,0.00,VWS V14.01,2013-01-08 19:55:00,
2013-01-08 14:05:00,52.0,33.5,29.99,SSW,202,5.4,5.8,49,0.00,,CLR,0.00,VWS V14.01,2013-01-08 20:05:00,
2013-01-08 14:10:00,51.8,33.3,29.98,SE,135,3.8,9.2,49,0.00,,CLR,0.00,VWS V14.01,2013-01-08 20:10:00,
2013-01-08 14:15:00,51.8,33.3,29.98,East,90,4.7,4.9,49,0.00,,CLR,0.00,VWS V14.01,2013-01-08 20:15:00,
2013-01-08 14:20:00,52.0,33.5,29.99,SE,135,5.6,5.6,49,0.00,,CLR,0.00,VWS V14.01,2013-01-08 20:20:00,
2013-01-08 14:25:00,51.8,33.3,29.99,WSW,248,6.3,6.3,49,0.00,,CLR,0.00,VWS V14.01,2013-01-08 20:25:00,
2013-01-08 14:30:00,51.8,33.3,29.99,SSE,158,2.5,6.3,49,0.00,,CLR,0.00,VWS V14.01,2013-01-08 20:30:00,
2013-01-08 14:35:00,52.1,34.0,29.99,SSW,202,3.4,5.1,50,0.00,,CLR,0.00,VWS V14.01,2013-01-08 20:35:00,
2013-01-08 14:40:00,52.7,34.6,29.99,SE,135,2.5,4.7,50,0.00,,CLR,0.00,VWS V14.01,2013-01-08 20:40:00,
2013-01-08 14:45:00,52.9,34.3,29.98,SE,135,6.9,6.9,49,0.00,,CLR,0.00,VWS V14.01,2013-01-08 20:45:00,
2013-01-08 14:50:00,53.0,33.8,29.98,SE,135,2.5,6.9,48,0.00,,CLR,0.00,VWS V14.01,2013-01-08 20:50:00,
2013-01-08 14:55:00,52.9,33.8,29.99,SSW,202,3.8,4.7,48,0.00,,CLR,0.00,VWS V14.01,2013-01-08 20:55:00,
2013-01-08 15:05:00,53.0,33.8,29.98,SSW,202,2.9,5.6,48,0.00,,CLR,0.00,VWS V14.01,2013-01-08 21:05:00,
2013-01-08 15:10:00,53.0,33.8,29.98,SW,225,8.7,8.7,48,0.00,,CLR,0.00,VWS V14.01,2013-01-08 21:10:00,
2013-01-08 15:15:00,52.7,33.6,29.98,SSE,158,4.3,8.7,48,0.00,,CLR,0.00,VWS V14.01,2013-01-08 21:15:00,
2013-01-08 15:20:00,52.5,33.4,29.99,SSE,158,5.6,5.6,48,0.00,,CLR,0.00,VWS V14.01,2013-01-08 21:20:00,
2013-01-08 15:25:00,52.3,33.2,29.98,WSW,248,2.7,5.6,48,0.00,,SCT070,0.00,VWS V14.01,2013-01-08 21:25:00,
2013-01-08 15:30:00,52.3,33.7,29.98,WSW,248,2.9,4.0,49,0.00,,SCT070,0.00,VWS V14.01,2013-01-08 21:30:00,
2013-01-08 15:35:00,52.5,33.4,29.98,NNE,22,2.0,5.4,48,0.00,,SCT070,0.00,VWS V14.01,2013-01-08 21:35:00,
2013-01-08 15:40:00,52.5,33.4,29.99,SW,225,3.4,4.9,48,0.00,,SCT070,0.00,VWS V14.01,2013-01-08 21:40:00,
2013-01-08 15:45:00,52.5,33.4,29.99,SW,225,4.0,4.5,48,0.00,,SCT070,0.00,VWS V14.01,2013-01-08 21:45:00,
2013-01-08 15:50:00,52.5,33.4,29.99,SSE,158,2.9,4.0,48,0.00,,SCT070,0.00,VWS V14.01,2013-01-08 21:50:00,
2013-01-08 15:55:00,52.3,33.2,29.99,South,180,3.1,4.0,48,0.00,,SCT070,0.00,VWS V14.01,2013-01-08 21:55:00,
2013-01-08 16:05:00,52.0,32.9,30.00,SE,135,2.0,3.4,48,0.00,,SCT070,0.00,VWS V14.01,2013-01-08 22:05:00,
2013-01-08 16:10:00,51.8,32.8,30.00,SE,135,3.1,3.4,48,0.00,,SCT070,0.00,VWS V14.01,2013-01-08 22:10:00,
2013-01-08 16:15:00,51.8,33.3,30.00,South,180,2.5,3.1,49,0.00,,CLR,0.00,VWS V14.01,2013-01-08 22:15:00,
2013-01-08 16:20:00,51.6,33.1,30.00,SW,225,2.7,4.0,49,0.00,,CLR,0.00,VWS V14.01,2013-01-08 22:20:00,
2013-01-08 16:25:00,51.4,32.9,30.00,WSW,248,3.4,7.2,49,0.00,,CLR,0.00,VWS V14.01,2013-01-08 22:25:00,
2013-01-08 16:30:00,51.4,32.9,29.99,SSW,202,3.6,4.7,49,0.00,,CLR,0.00,VWS V14.01,2013-01-08 22:30:00,
2013-01-08 16:35:00,51.2,33.2,29.99,SW,225,4.7,4.7,50,0.00,,CLR,0.00,VWS V14.01,2013-01-08 22:35:00,
2013-01-08 16:40:00,51.1,33.1,29.99,West,270,3.1,4.7,50,0.00,,CLR,0.00,VWS V14.01,2013-01-08 22:40:00,
2013-01-08 16:45:00,50.9,32.9,29.99,SSE,158,5.6,5.6,50,0.00,,CLR,0.00,VWS V14.01,2013-01-08 22:45:00,
2013-01-08 16:50:00,50.7,32.8,30.00,SSW,202,1.8,5.6,50,0.00,,CLR,0.00,VWS V14.01,2013-01-08 22:50:00,
2013-01-08 16:55:00,50.3,32.9,30.00,SW,225,1.3,3.4,51,0.00,,CLR,0.00,VWS V14.01,2013-01-08 22:55:00,
2013-01-08 17:05:00,49.8,32.4,30.00,SSW,202,1.3,2.5,51,0.00,,CLR,0.00,VWS V14.01,2013-01-08 23:05:00,
2013-01-08 17:10:00,49.8,32.4,30.00,SSE,158,2.0,2.5,51,0.00,,CLR,0.00,VWS V14.01,2013-01-08 23:10:00,
2013-01-08 17:15:00,49.4,32.5,30.00,SSE,158,1.6,2.5,52,0.00,,CLR,0.00,VWS V14.01,2013-01-08 23:15:00,
2013-01-08 17:20:00,49.1,32.2,30.01,ESE,112,3.1,3.1,52,0.00,,CLR,0.00,VWS V14.01,2013-01-08 23:20:00,
2013-01-08 17:25:00,49.1,32.2,30.01,South,180,3.1,3.1,52,0.00,,FEW065,0.00,VWS V14.01,2013-01-08 23:25:00,
2013-01-08 17:30:00,48.9,32.5,30.01,SW,225,1.1,3.6,53,0.00,,FEW065,0.00,VWS V14.01,2013-01-08 23:30:00,
2013-01-08 17:37:00,48.7,32.3,30.03,SE,135,3.4,3.4,53,0.00,,FEW065,0.00,VWS V14.01,2013-01-08 23:37:00,
2013-01-08 17:45:00,48.5,32.6,30.02,SSE,158,1.1,3.4,54,0.00,,FEW065,0.00,VWS V14.01,2013-01-08 23:45:00,
2013-01-08 17:50:00,48.7,32.8,30.02,SSW,202,1.3,2.9,54,0.00,,FEW065,0.00,VWS V14.01,2013-01-08 23:50:00,
2013-01-08 17:55:00,48.5,32.6,30.02,South,180,2.2,2.2,54,0.00,,FEW065,0.00,VWS V14.01,2013-01-08 23:55:00,
2013-01-08 18:05:00,48.5,32.6,30.03,SW,225,1.1,2.5,54,0.00,,FEW065,0.00,VWS V14.01,2013-01-09 00:05:00,
2013-01-08 18:10:00,48.4,32.5,30.03,SSW,202,1.1,4.3,54,0.00,,FEW065,0.00,VWS V14.01,2013-01-09 00:10:00,
2013-01-08 18:15:00,48.4,32.5,30.04,WNW,292,0.7,3.4,54,0.00,,FEW065,0.00,VWS V14.01,2013-01-09 00:15:00,
2013-01-08 18:20:00,48.0,32.6,30.04,SW,225,4.3,4.3,55,0.00,,FEW065,0.00,VWS V14.01,2013-01-09 00:20:00,
2013-01-08 18:25:00,47.8,32.4,30.04,SSW,202,0.7,4.3,55,0.00,,OVC090,0.00,VWS V14.01,2013-01-09 00:25:00,
2013-01-08 18:30:00,47.6,32.2,30.04,SW,225,1.8,2.2,55,0.00,,OVC090,0.00,VWS V14.01,2013-01-09 00:30:00,
2013-01-08 18:35:00,47.5,32.2,30.05,WSW,248,0.7,1.8,55,0.00,,OVC090,0.00,VWS V14.01,2013-01-09 00:35:00,
2013-01-08 18:40:00,47.5,32.6,30.05,SW,225,1.1,1.8,56,0.00,,OVC090,0.00,VWS V14.01,2013-01-09 00:40:00,
2013-01-08 18:45:00,47.3,32.4,30.05,North,0,4.0,4.0,56,0.00,,OVC090,0.00,VWS V14.01,2013-01-09 00:45:00,
2013-01-08 18:50:00,47.3,32.4,30.05,SSW,202,0.0,4.0,56,0.00,,OVC090,0.00,VWS V14.01,2013-01-09 00:50:00,
2013-01-08 18:55:00,46.9,32.0,30.05,West,270,1.8,1.8,56,0.00,,OVC090,0.00,VWS V14.01,2013-01-09 00:55:00,
2013-01-08 19:05:00,46.7,32.3,30.05,SSW,202,1.6,3.8,57,0.00,,OVC090,0.00,VWS V14.01,2013-01-09 01:05:00,
2013-01-08 19:10:00,46.6,32.2,30.06,South,180,1.3,2.7,57,0.00,,OVC090,0.00,VWS V14.01,2013-01-09 01:10:00,
2013-01-08 19:15:00,46.6,32.2,30.06,SSW,202,1.8,3.6,57,0.00,,OVC090,0.00,VWS V14.01,2013-01-09 01:15:00,
2013-01-08 19:20:00,46.6,32.2,30.07,South,180,2.0,2.5,57,0.00,,OVC090,0.00,VWS V14.01,2013-01-09 01:20:00,
2013-01-08 19:25:00,46.4,32.4,30.06,SSE,158,1.1,2.5,58,0.00,,CLR,0.00,VWS V14.01,2013-01-09 01:25:00,
2013-01-08 19:30:00,46.4,32.4,30.06,SW,225,1.1,2.5,58,0.00,,CLR,0.00,VWS V14.01,2013-01-09 01:30:00,
2013-01-08 19:35:00,46.2,32.2,30.06,SSE,158,0.7,2.2,58,0.00,,CLR,0.00,VWS V14.01,2013-01-09 01:35:00,
2013-01-08 19:40:00,46.2,32.2,30.07,SW,225,1.3,1.8,58,0.00,,CLR,0.00,VWS V14.01,2013-01-09 01:40:00,
2013-01-08 19:45:00,46.0,32.1,30.07,East,90,1.1,2.5,58,0.00,,CLR,0.00,VWS V14.01,2013-01-09 01:45:00,
2013-01-08 19:50:00,45.8,32.3,30.07,SW,225,1.6,1.6,59,0.00,,CLR,0.00,VWS V14.01,2013-01-09 01:50:00,
2013-01-08 19:55:00,45.5,32.0,30.07,ENE,68,0.9,1.6,59,0.00,,CLR,0.00,VWS V14.01,2013-01-09 01:55:00,
2013-01-08 20:05:00,45.5,32.0,30.07,ENE,68,1.3,1.8,59,0.00,,CLR,0.00,VWS V14.01,2013-01-09 02:05:00,
2013-01-08 20:10:00,45.3,32.2,30.07,SW,225,1.8,1.8,60,0.00,,CLR,0.00,VWS V14.01,2013-01-09 02:10:00,
2013-01-08 20:15:00,45.1,32.1,30.07,SSW,202,0.0,1.8,60,0.00,,CLR,0.00,VWS V14.01,2013-01-09 02:15:00,
2013-01-08 20:20:00,44.9,31.9,30.08,South,180,0.4,1.6,60,0.00,,CLR,0.00,VWS V14.01,2013-01-09 02:20:00,
2013-01-08 20:25:00,44.8,31.8,30.08,SSW,202,0.4,1.8,60,0.00,,CLR,0.00,VWS V14.01,2013-01-09 02:25:00,
2013-01-08 20:30:00,44.8,32.2,30.08,South,180,0.7,1.1,61,0.00,,CLR,0.00,VWS V14.01,2013-01-09 02:30:00,
2013-01-08 20:35:00,44.4,31.4,30.09,SW,225,0.7,2.2,60,0.00,,CLR,0.00,VWS V14.01,2013-01-09 02:35:00,
2013-01-08 20:40:00,44.2,31.2,30.09,WSW,248,0.9,1.1,60,0.00,,CLR,0.00,VWS V14.01,2013-01-09 02:40:00,
2013-01-08 20:45:00,44.0,31.0,30.09,SSW,202,0.4,0.9,60,0.00,,CLR,0.00,VWS V14.01,2013-01-09 02:45:00,
2013-01-08 20:50:00,44.0,31.4,30.09,ESE,112,0.0,1.1,61,0.00,,CLR,0.00,VWS V14.01,2013-01-09 02:50:00,
2013-01-08 20:55:00,43.7,31.1,30.09,SW,225,2.2,2.2,61,0.00,,CLR,0.00,VWS V14.01,2013-01-09 02:55:00,
2013-01-08 21:05:00,43.3,31.2,30.10,WSW,248,1.6,2.5,62,0.00,,CLR,0.00,VWS V14.01,2013-01-09 03:05:00,
2013-01-08 21:10:00,43.0,30.9,30.10,West,270,1.1,1.8,62,0.00,,CLR,0.00,VWS V14.01,2013-01-09 03:10:00,
2013-01-08 21:15:00,42.8,31.1,30.10,SSE,158,0.0,1.6,63,0.00,,CLR,0.00,VWS V14.01,2013-01-09 03:15:00,
2013-01-08 21:20:00,42.6,30.9,30.10,South,180,1.1,1.3,63,0.00,,CLR,0.00,VWS V14.01,2013-01-09 03:20:00,
2013-01-08 21:25:00,42.6,30.9,30.10,SW,225,0.2,1.1,63,0.00,,CLR,0.00,VWS V14.01,2013-01-09 03:25:00,
2013-01-08 21:30:00,42.6,30.9,30.11,SW,225,0.4,1.1,63,0.00,,CLR,0.00,VWS V14.01,2013-01-09 03:30:00,
2013-01-08 21:35:00,42.4,30.7,30.11,West,270,0.4,1.1,63,0.00,,CLR,0.00,VWS V14.01,2013-01-09 03:35:00,
2013-01-08 21:40:00,42.2,30.9,30.12,WSW,248,2.7,2.7,64,0.00,,CLR,0.00,VWS V14.01,2013-01-09 03:40:00,
2013-01-08 21:45:00,42.1,30.8,30.12,SSE,158,0.4,2.7,64,0.00,,CLR,0.00,VWS V14.01,2013-01-09 03:45:00,
2013-01-08 21:50:00,41.9,30.6,30.12,WSW,248,3.8,3.8,64,0.00,,CLR,0.00,VWS V14.01,2013-01-09 03:50:00,
2013-01-08 21:55:00,41.9,30.6,30.12,West,270,1.1,3.8,64,0.00,,CLR,0.00,VWS V14.01,2013-01-09 03:55:00,
2013-01-08 22:05:00,41.9,31.0,30.13,WSW,248,1.3,2.7,65,0.00,,CLR,0.00,VWS V14.01,2013-01-09 04:05:00,
2013-01-08 22:10:00,41.7,30.8,30.13,West,270,2.0,2.0,65,0.00,,CLR,0.00,VWS V14.01,2013-01-09 04:10:00,
2013-01-08 22:18:00,41.5,30.6,30.14,WNW,292,1.1,4.5,65,0.00,,CLR,0.00,VWS V14.01,2013-01-09 04:18:00,
2013-01-08 22:25:00,41.3,30.8,30.15,WSW,248,1.1,1.8,66,0.00,,CLR,0.00,VWS V14.01,2013-01-09 04:25:00,
2013-01-08 22:30:00,41.2,30.7,30.15,WSW,248,2.5,2.5,66,0.00,,CLR,0.00,VWS V14.01,2013-01-09 04:30:00,
2013-01-08 22:35:00,41.0,30.5,30.15,NW,315,1.8,2.5,66,0.00,,CLR,0.00,VWS V14.01,2013-01-09 04:35:00,
2013-01-08 22:40:00,40.8,30.3,30.15,West,270,0.9,3.4,66,0.00,,CLR,0.00,VWS V14.01,2013-01-09 04:40:00,
2013-01-08 22:45:00,40.8,30.3,30.15,West,270,1.1,2.5,66,0.00,,CLR,0.00,VWS V14.01,2013-01-09 04:45:00,
2013-01-08 22:50:00,40.6,30.1,30.15,West,270,1.8,2.0,66,0.00,,CLR,0.00,VWS V14.01,2013-01-09 04:50:00,
2013-01-08 22:55:00,40.4,30.0,30.15,SSE,158,0.0,2.5,66,0.00,,CLR,0.00,VWS V14.01,2013-01-09 04:55:00,
2013-01-08 23:05:00,39.7,29.7,30.16,WSW,248,0.7,1.8,67,0.00,,CLR,0.00,VWS V14.01,2013-01-09 05:05:00,
2013-01-08 23:08:00,39.7,29.7,30.16,West,270,0.0,0.7,67,0.00,,CLR,0.00,VWS V14.01,2013-01-09 05:08:00,
2013-01-08 23:10:00,39.5,29.5,30.16,WSW,248,0.4,0.9,67,0.00,,CLR,0.00,VWS V14.01,2013-01-09 05:10:00,
2013-01-08 23:15:00,39.2,29.2,30.16,WSW,248,0.7,0.7,67,0.00,,CLR,0.00,VWS V14.01,2013-01-09 05:15:00,
2013-01-08 23:20:00,38.8,28.8,30.16,WSW,248,0.0,0.7,67,0.00,,CLR,0.00,VWS V14.01,2013-01-09 05:20:00,
2013-01-08 23:25:00,38.3,28.3,30.17,WSW,248,0.0,0.0,67,0.00,,CLR,0.00,VWS V14.01,2013-01-09 05:25:00,
2013-01-08 23:30:00,37.9,27.9,30.18,WSW,248,0.0,0.0,67,0.00,,CLR,0.00,VWS V14.01,2013-01-09 05:30:00,
2013-01-08 23:35:00,37.6,27.6,30.17,NNW,338,0.0,0.0,67,0.00,,CLR,0.00,VWS V14.01,2013-01-09 05:35:00,
2013-01-08 23:40:00,37.0,27.4,30.17,NNW,338,0.0,0.0,68,0.00,,CLR,0.00,VWS V14.01,2013-01-09 05:40:00,
2013-01-08 23:45:00,36.8,27.2,30.18,NNW,338,0.0,0.0,68,0.00,,CLR,0.00,VWS V14.01,2013-01-09 05:45:00,
2013-01-08 23:50:00,36.3,26.8,30.19,North,0,0.0,0.0,68,0.00,,CLR,0.00,VWS V14.01,2013-01-09 05:50:00,
2013-01-08 23:55:00,35.9,26.7,30.19,North,0,0.0,0.0,69,0.00,,CLR,0.00,VWS V14.01,2013-01-09 05:55:00,